COSMOS 726

导读 | 星芒AI

COSMOS 726 是苏联于1975年发射的一颗军用侦察卫星,属于“宇宙”卫星系列。该卫星主要用于电子情报收集和监视任务,具体功能和轨道参数未公开。作为冷战时期苏联太空计划的一部分,COSMOS 726 在轨道上运行一段时间后失联,最终再入大气层销毁。这类卫星在当时对军事战略和情报获取具有重要意义。

基本信息
目录编号:
7736
目录名称:
COSMOS 726
国际标识:
1975-028A
轨道中心:
EARTH
卫星名称:
COSMOS 726
卫星全名:
--
卫星状态:
在轨 (已飞行18511 天)
发射日期:
1975-04-11 UTC
国别 :
俄罗斯(独联体) (CIS)
星等 :
--
轨道信息
数据来源 国际轨道数据 AOE轨道数据
星历时间 2025-12-14T14:28:42+0800
1天前
查看轨道信息
2025-12-12T05:00:00+0800
3天前
查看轨道信息
半长轴 7347.575km 7347.576km
偏心率 0.0025249 0.0025196
轨道倾角 82.996° 82.997°
近地点辐角 203.444° 210.586°
升交点赤经 358.697° 0.467°
平近点角 156.557° 151.611°
近地点 950.888km 950.928km
远地点 987.992km 987.954km
周期 104.466分钟 104.466分钟
每日圈数 13.784366 13.784361
详细信息
使用方式:
暂无
2D轨道图
3D轨道图
轨道高度分析图
轨道倾角分析图
轨道综合分析图
查看轨道综合分析图